STARLINK-11280 [DTC] (61245 NORAD) Tracking and Keplerian Element Data

This shows tracking and keplerian element data for the satellite.

Feedback or suggestion? Click here.




ElementValue
Catalog61245
NameSTARLINK-11280 [DTC]
Epoch Orbit280
Epoch Day286.86877989
Epoch Year2024
RAAN65.6607
Inclination53.1575
Eccentricity4.19E-05
Argument of Perigee103.3822
Mean Anonmoly256.7245
Mean Motion15.76793287
Decay Rate0.00036564
L11 61245U 24175C 24286.86877989 .00036564 00000+0 22579-3 0 9992
L22 61245 53.1575 65.6607 0000419 103.3822 256.7245 15.76793287 2805



Live tracking and technical data element details for STARLINK-11280 [DTC] (NORAD 61245). STARLINK-11280 [DTC] can be tracked NOW for your location showing map with azimuth and elevation plus other details from your city location.







IsCatalogInMostPopularTable: catalog: 61245, numindb: 23
Update: records affected: 1



GetName: 61245 STARLINK-11280 [DTC]

Hit Count: updated at: Wed, 04 Dec 2024 09:15:40 GMT